Location: Bannatyne
(13.0833°N, 59.5333°W)
Time: 00:35:16
(UTC+00:00)

Vanguard 1 - Visible Passes

Search period start: 28 January 2020 00:00
Search period end: 07 February 2020 00:00
Orbit: 650 x 3833 km, 34.2° (Epoch: 27 January)

Date Brightness Start Highest point End Pass type
(mag) Time Alt. Az. Time Alt. Az. Time Alt. Az.
28 Jan 13.6 06:01:04 20° SSW 06:01:04 20° SSW 06:10:57 10° SSE visible
28 Jan 11.7 23:06:29 10° N 23:08:38 12° NNE 23:08:38 12° NNE visible
29 Jan 14.0 04:07:46 11° SSE 04:07:46 11° SSE 04:08:24 10° SSE visible
29 Jan 13.8 06:20:26 15° SSW 06:20:26 15° SSW 06:30:10 10° S visible
29 Jan 11.5 23:26:19 10° NNW 23:28:39 17° NNE 23:28:39 17° NNE visible
30 Jan 13.9 04:27:07 13° SSE 04:27:07 13° SSE 04:28:57 10° SSE visible
30 Jan 13.9 06:39:46 10° SSW 06:42:56 11° SSW 06:47:11 10° S visible
30 Jan 11.4 23:46:33 10° NNW 23:48:42 21° N 23:48:42 21° N visible
31 Jan 13.9 04:46:26 14° SSE 04:46:26 14° SSE 04:49:03 10° SSE visible
01 Feb 11.4 00:06:57 10° NW 00:08:49 22° NNW 00:08:49 22° NNW visible
01 Feb 13.9 05:05:45 13° S 05:05:45 13° S 05:08:31 10° S visible
02 Feb 11.7 00:27:32 10° NW 00:28:58 20° NW 00:28:58 20° NW visible
02 Feb 13.9 05:25:03 11° S 05:25:03 11° S 05:26:23 10° S visible
02 Feb 11.2 22:30:43 10° N 22:33:31 15° NNE 22:36:26 11° ENE visible
03 Feb 12.1 00:48:17 10° WNW 00:49:11 16° WNW 00:49:11 16° WNW visible
03 Feb 10.7 22:50:47 10° NNW 22:54:36 24° NNE 22:56:43 19° ENE visible
04 Feb 12.5 01:09:17 10° WNW 01:09:29 11° WNW 01:09:29 11° WNW visible
04 Feb 10.2 23:11:09 10° NW 23:15:32 38° NE 23:17:04 32° ENE visible
05 Feb 9.7 23:31:44 10° NW 23:36:25 64° NE 23:37:30 54° E visible
06 Feb 14.6 09:26:21 10° S 09:34:19 12° SSE 09:41:44 10° SE visible
